This is the latest recevied weather packets stored in our database for station/object KB1JDX. If no packets are shown the sender has not sent any weather packets the latest 10 day(s).
| Time | Temp. | Humidity | Pressure | Rain* | Wind** | Luminosity | Snow |
|---|---|---|---|---|---|---|---|
| 1777867233 | 2.22° C | 57% | 1011.4 hPa | 0 mm | 0 m/s | - | - |
| 1777866032 | 2.78° C | 59% | 1011.2 hPa | 0 mm | 0 m/s | - | - |
| 1777864833 | 2.78° C | 63% | 1011.3 hPa | 0 mm | 0 m/s | - | - |
| 1777864766 | 2.78° C | 63% | 1011.3 hPa | 0 mm | 0 m/s | - | - |
| 1777863633 | 3.33° C | 66% | 1011.1 hPa | 0 mm | 0 m/s | - | - |
| 1777862433 | 3.33° C | 67% | 1011 hPa | 0 mm | 0 m/s | - | - |
| 1777861233 | 3.89° C | 69% | 1010.8 hPa | 0 mm | 0 m/s | - | - |
| 1777861166 | 3.89° C | 69% | 1010.8 hPa | 0 mm | 0 m/s | - | - |
| 1777860033 | 4.44° C | 70% | 1010.7 hPa | 0 mm | 0 m/s | - | - |
| 1777858833 | 5° C | 69% | 1010.6 hPa | 0 mm | 0 m/s | - | - |
| 1777857566 | 5.56° C | 66% | 1010.4 hPa | 0 mm | 0 m/s | - | - |
| 1777856433 | 6.67° C | 63% | 1010 hPa | 0 mm | 0 m/s | - | - |
| 1777855234 | 7.22° C | 57% | 1009.6 hPa | 0 mm | 0 m/s | - | - |
| 1777854033 | 8.33° C | 53% | 1009.4 hPa | 0 mm | 0 m/s | - | - |
| 1777853966 | 8.89° C | 53% | 1009.4 hPa | 0 mm | 0 m/s | - | - |
| 1777852833 | 10° C | 49% | 1009.3 hPa | 0 mm | 0 m/s | - | - |
| 1777851634 | 10.56° C | 45% | 1009.1 hPa | 0 mm | 0 m/s | - | - |
| 1777850433 | 11.11° C | 42% | 1009.1 hPa | 0 mm | 0 m/s | - | - |
| 1777850366 | 11.11° C | 42% | 1009.1 hPa | 0 mm | 0 m/s | - | - |
| 1777849234 | 11.11° C | 42% | 1008.8 hPa | 0 mm | 0 m/s | - | - |
| 1777848033 | 11.11° C | 43% | 1008.7 hPa | 0 mm | 0 m/s | - | - |
| 1777846834 | 11.11° C | 42% | 1008.5 hPa | 0 mm | 2.24 m/s, 300° | - | - |
| 1777846766 | 11.11° C | 42% | 1008.7 hPa | 0 mm | 3.58 m/s, 308° | - | - |
| 1777845634 | 11.67° C | 41% | 1008.4 hPa | 0 mm | 2.24 m/s, 302° | - | - |
| 1777844434 | 11.67° C | 41% | 1008.1 hPa | 0 mm | 0.89 m/s, 291° | - | - |
* Rain latest hour (hover to see other rain measurements)
** Current wind speed in m/s (hover to see current wind gust speed)